Regional Weather Roundup
Issued by NWS Cleveland, OH

Home | Current Version | Previous Version | Text Only | Print | Product List | Glossary Off
Versions: 1 2 3 4 5 6 7 8 9 10 11 12 13 14 15 16 17 18 19 20 21 22 23 24 25 26 27 28 29 30 31 32 33 34 35 36 37 38 39 40 41 42 43 44 45 46 47 48 49 50

000
ASUS41 KCLE 012210
RWRCLE
OHIO REGIONAL WEATHER ROUNDUP
NATIONAL WEATHER SERVICE CLEVELAND, OH
500 PM EST SUN MAR 01 2015

NOTE: "FAIR" INDICATES FEW OR NO CLOUDS BELOW 12,000 FEET WITH NO
SIGNIFICANT WEATHER AND/OR OBSTRUCTIONS TO VISIBILITY.

OHZ001>008-015>018-024>027-034-035-043-044-012300-
   NORTHWEST OHIO

CITY           SKY/WX    TMP DP  RH WIND       PRES   REMARKS
DEFIANCE       PTSUNNY   24  18  77 SW3       30.26F
FINDLAY        CLOUDY    25  21  85 W5        30.24F FOG     WCI  19
TOLEDO EXPRESS CLOUDY    22  18  85 W6        30.25F WCI  14
TOLEDO EXEC    CLOUDY    25  18  74 W6        30.26F WCI  18
LIMA           LGT SNOW  27  22  81 NW6       30.24S WCI  20
$$

OHZ009>014-019>023-028>033-038-089-012300-
   NORTHEAST OHIO

CITY           SKY/WX    TMP DP  RH WIND       PRES   REMARKS
CLE-HOPKINS    LGT SNOW  26  23  88 MISG      30.26F VSB 1
CLE-LAKEFRONT  LGT SNOW  24  20  84 NW6       30.25S FOG     WCI  17
CUY CO. ARPT   LGT SNOW  27  25  93 NW9       30.24F FOG     WCI  17
LORAIN-ELYRIA  LGT SNOW  25  22  88 N5        30.24F FOG     WCI  19
ASHTABULA      LGT SNOW  26  23  88 NW7       30.22S FOG     WCI  18
AKRON-CANTON   LGT SNOW  32  29  88 VRB3      30.20F VSB 3/4
WOOSTER        LGT SNOW  30  29  96 NW6       30.22S VSB 3/4 WCI  24
MANSFIELD      LGT SNOW  28  25  88 NW6       30.21R FOG     WCI  22
YOUNGSTOWN     LGT SNOW  32  30  92 W8        30.19F VSB 3/4 WCI  25
$$

OHZ042-051>053-060>062-070>072-077>081-012300-
  SOUTHWEST OHIO

CITY           SKY/WX    TMP DP  RH WIND       PRES   REMARKS
CINC-COVINGTON CLOUDY    34  31  88 W7        30.27R FOG     WCI  28
CINC-LUNKEN    LGT RAIN  33  32  96 S5        30.28S FOG     WCI  29
HAMILTON       CLOUDY    33  32  96 CALM      30.28R FOG
DAYTON         FOG       32  29  88 N5        30.24F VSB 1   WCI  27
WRIGHT-PAT AFB LGT SNOW  32  31  95 W3        30.24F FOG
DAYTON GENERAL CLOUDY    32  31  96 W6        30.25R FOG     WCI  26
WILMINGTON     CLOUDY    33  30  88 W8        30.23S FOG     WCI  26
$$

OHZ036-037-039>041-045>050-054>059-063>069-073>076-082>088-012300-
  CENTRAL AND SOUTHEAST OHIO

CITY           SKY/WX    TMP DP  RH WIND       PRES   REMARKS
COLUMBUS       LGT SNOW  32  30  92 SW3       30.23S VSB 3/4
OSU AIRPORT    LGT SNOW  32  30  92 W5        30.22F FOG     WCI  27
BOLTON FIELD   LGT SNOW  32  32 100 SW3       30.24F VSB 1
RICKENBACK AFB LGT SNOW  32  32  99 S3        30.24S
NEWARK         LGT SNOW  34  32  92 SW7       30.22S FOG     WCI  28
MARION         LGT SNOW  27  24  89 NW3       30.23F FOG
LANCASTER      LGT SNOW  34  33  96 S5        30.24S FOG     WCI  30
ZANESVILLE     LGT RAIN  34  33  96 SW3       30.23F FOG
NEW PHILLY     LGT SNOW  35  31  85 CALM      30.22F VSB 3/4
$$



USA.gov is the U.S. government's official web portal to all federal, state and local government web resources and services.